Ord, NE

2:56 PM CDT on August 21, 2017 (GMT -0500)
Sharp

Weather History for KODX - February, 2011

Change the Weather History Date:

Friday, February 18, 2011

  Actual Average Record
Temperature  
Mean Temperature 37 °F 28 °F  
Max Temperature 53 °F 41 °F 63 °F (2017)
Min Temperature 20 °F 16 °F -9 °F (2006)
Degree Days  
Heating Degree Days 28 37  
Month to date heating degree days 672 689  
Since 1 July heating degree days 4806 4665  
Cooling Degree Days 0 0  
Month to date cooling degree days 0 0  
Year to date cooling degree days 0 0  
Moisture  
Dew Point 17 °F    
Average Humidity 50    
Maximum Humidity 84    
Minimum Humidity 16    
Precipitation  
Precipitation 0.00 in 0.01 in 1.35 in (1972)
Month to date precipitation 0.02 0.31  
Year to date precipitation 1.26 0.68  
Sea Level Pressure  
Sea Level Pressure 30.19 in    
Wind  
Wind Speed 4 mph (South)    
Max Wind Speed 15 mph    
Max Gust Speed 18 mph    
Visibility 10 miles    
Events      
T = Trace of Precipitation, MM = Missing Value Source: NWS Daily Summary

Daily Weather History Graph

Daily Weather History Graph

Search for Another Location

Airport or City:

Trip Planner

Search our weather history database for the weather conditions in past years. The results will help you decide how hot, cold, wet, or windy it might be!

Date:

Astronomy

Feb. 18, 2011 Rise Set
Actual Time 7:27 AM CST 6:12 PM CST
Civil Twilight 6:58 AM CST 6:41 PM CST
Nautical Twilight 6:26 AM CST 7:13 PM CST
Astronomical Twilight 5:54 AM CST 7:45 PM CST
Moon 7:08 PM CST (2/18) 7:16 AM CST (2/18)
Length of Visible Light 11h 42m
Length of Day
10h 45m
Full, 100% of the Moon is Illuminated
Feb 18
Full
Feb 24
Last Quarter
Mar 4
New
Mar 12
First Quarter
Mar 19
Full

Hourly Weather History & Observations

Time (CST) Temp. Windchill Dew Point Humidity Pressure Visibility Wind Dir Wind Speed Gust Speed Precip Events Conditions
12:53 AM 26.1 °F - 21.0 °F 81% 30.08 in 10.0 mi Calm Calm - N/A   Clear
1:53 AM 25.0 °F 18.1 °F 19.9 °F 81% 30.09 in 10.0 mi SSW 5.8 mph - N/A   Clear
2:53 AM 26.1 °F - 21.0 °F 81% 30.11 in 10.0 mi Calm Calm - N/A   Clear
3:53 AM 26.1 °F - 21.0 °F 81% 30.13 in 10.0 mi Calm Calm - N/A   Clear
4:53 AM 26.1 °F - 19.0 °F 75% 30.14 in 10.0 mi Calm Calm - N/A   Clear
5:53 AM 21.0 °F - 16.0 °F 81% 30.17 in 10.0 mi Calm Calm - N/A   Clear
6:53 AM 21.9 °F 17.2 °F 17.1 °F 82% 30.18 in 10.0 mi NNE 3.5 mph - N/A   Clear
7:53 AM 23.0 °F - 18.0 °F 81% 30.22 in 10.0 mi Calm Calm - N/A   Clear
8:53 AM 28.9 °F - 21.9 °F 75% 30.23 in 10.0 mi Calm Calm - N/A   Clear
9:53 AM 36.0 °F - 25.0 °F 64% 30.26 in 10.0 mi Calm Calm - N/A   Clear
10:53 AM 44.1 °F 40.8 °F 19.9 °F 38% 30.27 in 10.0 mi West 5.8 mph - N/A   Clear
11:53 AM 48.0 °F - 14.0 °F 26% 30.25 in 10.0 mi West 4.6 mph - N/A   Clear
12:53 PM 50.0 °F - 12.9 °F 23% 30.24 in 10.0 mi SSW 8.1 mph - N/A   Clear
1:53 PM 51.1 °F - 10.9 °F 20% 30.22 in 10.0 mi South 10.4 mph - N/A   Clear
2:53 PM 53.1 °F - 9.0 °F 17% 30.19 in 10.0 mi SSW 12.7 mph - N/A   Clear
3:53 PM 53.1 °F - 9.0 °F 17% 30.18 in 10.0 mi South 12.7 mph - N/A   Clear
4:53 PM 51.1 °F - 10.9 °F 20% 30.18 in 10.0 mi South 9.2 mph - N/A   Clear
5:53 PM 48.9 °F - 12.0 °F 23% 30.19 in 10.0 mi SSE 6.9 mph - N/A   Clear
6:53 PM 44.1 °F 40.1 °F 15.1 °F 31% 30.21 in 10.0 mi SSE 6.9 mph - N/A   Clear
7:53 PM 36.0 °F 30.3 °F 19.0 °F 50% 30.23 in 10.0 mi SSW 6.9 mph - N/A   Clear
8:53 PM 35.6 °F - 17.6 °F 48% 30.17 in 10.0 mi Calm Calm - N/A   Clear
9:53 PM 33.1 °F 28.7 °F 19.9 °F 59% 30.24 in 10.0 mi SE 4.6 mph - N/A   Clear
10:53 PM 30.0 °F - 18.0 °F 61% 30.22 in 10.0 mi Calm Calm - N/A   Clear
11:53 PM 30.2 °F - 21.2 °F 69% 30.17 in 10.0 mi Calm Calm - N/A   Clear